Regional Weather Roundup
Issued by NWS

Home | Current Version | Previous Version | Text Only | Print | Product List | Glossary On
Versions: 1 2 3 4 5 6 7 8 9 10 11 12 13 14 15 16 17 18 19 20 21 22 23 24 25 26 27 28 29 30 31 32 33 34 35 36 37 38 39 40 41 42 43 44 45 46 47 48 49 50
000
ASUS44 KFWD 201915
RWRTX
NORTH TEXAS HOURLY WEATHER ROUNDUP
NATIONAL WEATHER SERVICE FORT WORTH TX
200 PM CDT MON MAY 20 2019

NOTE: "FAIR" INDICATES FEW OR NO CLOUDS BELOW 12,000 FEET WITH NO
SIGNIFICANT WEATHER AND/OR OBSTRUCTIONS TO VISIBILITY.

TXZ118-119-202000-
DALLAS/FORT WORTH METROPLEX

CITY           SKY/WX    TMP DP  RH WIND       PRES   REMARKS
DFW AIRPORT    PTSUNNY   85  73  67 S22G30    29.73F HX  91
DALLAS LOVE    CLOUDY    86  72  62 S16G28    29.75F HX  92
FTW MEACHAM    CLOUDY    85  72  65 SE21G36   29.72F HX  91
DAL-EXECUTIVE  PTSUNNY   84  72  67 S22G32    29.75F
FTW-ALLIANCE   CLOUDY    83  72  69 S23G32    29.73F HAZE
FTW-NAS-JRB    CLOUDY    86  73  65 S22G31    29.73F HX  93
FTW-SPINKS     PTSUNNY   84  73  70 SE16G30   29.77F FOG     HX  91
ARLINGTON      PTSUNNY   85  72  65 S21G28    29.75F HX  91
GRAND PRAIRIE  PTSUNNY   84  72  65 SE17G28   29.77F
ADDISON        PTSUNNY   86  72  62 S20G35    29.76F HX  92
MESQUITE       CLOUDY    84  75  74 SE18G31   29.79F HX  92
LANCASTER      PTSUNNY   85  73  67 S21       29.78F HX  92
$$

TXZ091>094-102>105-117-120-121-131>134-202000-
NORTH CENTRAL TEXAS

CITY           SKY/WX    TMP DP  RH WIND       PRES   REMARKS
SHRMAN/DENISON PTSUNNY   81  73  78 SE15G23   29.78F
GAINESVILLE    CLOUDY    80  73  78 S6G22     29.76F
BOWIE          CLOUDY    82  74  76 SE16      29.73F
BRIDGEPORT     PTSUNNY   82  72  70 S14G23    29.74F
DECATUR        FAIR      82  73  73 S20G25    29.75F
DENTON         PTSUNNY   83  73  72 S17G24    29.74F
MCKINNEY       PTSUNNY   83  74  74 S18G25    29.77F
BONHAM         CLOUDY    81  74  80 SE15G24   29.79F
GREENVILLE     PTSUNNY   88  73  62 SE17      29.80F HX  96
ROCKWALL       PTSUNNY   83  74  73 S17G25    29.79F HX  90
TERRELL        LGT RAIN  83  75  77 S16G23    29.80F HX  90
WAXAHACHIE     PTSUNNY   85  74  68 S22G31    29.78F HX  92
CLEBURNE       FAIR      84  75  74 S21G35    29.77F HX  92
GRANBURY       PTSUNNY   88  72  58 CALM      29.73F HX  94
$$

TXZ083>090-098>101-113>116-127>130-139>142-154-155-202000-
WESTERN NORTH TEXAS

CITY           SKY/WX    TMP DP  RH WIND       PRES   REMARKS
WICHITA FALLS  PTSUNNY   80  73  79 S18       29.67F
WF-KICKAPOO    FAIR      81  73  76 S15G22    29.71F
VERNON         PTSUNNY   83  71  67 S22G33    29.65F
ABILENE        FAIR      87  70  56 S31G41    29.66F HAZE    HX  92
ABILENE-DYESS  CLOUDY    86  67  52 S26G41    29.65F
GRAHAM         FAIR      82  73  73 S13G22    29.68F
BRECKENRIDGE   PTSUNNY   87  69  53 S24G35    29.69F HX  91
CISCO          PTSUNNY   84  72  65 S23G33    29.72F
EASTLAND       CLOUDY    82  70  66 S21G37    29.71F
RANGER         PTSUNNY   84  71  65 S17G28    29.72F
MINERAL WELLS  PTSUNNY   85  73  67 S14G26    29.71F HX  91
STEPHENVILLE   FAIR      85  71  62 SE20G25   29.75F HX  91
COMANCHE       CLOUDY    85  71  63 S22G35    29.73F
BROWNWOOD      PTSUNNY   84  70  61 S20G25    29.71F
COLEMAN        PTSUNNY   83  68  60 S17G26    29.72F
BRADY          PTSUNNY   84  70  61 S24G36    29.72F
$$

TXZ143>147-156>162-174-175-202000-
CENTRAL TEXAS

CITY           SKY/WX    TMP DP  RH WIND       PRES   REMARKS
WACO           PTSUNNY   87  72  60 S17G35    29.77F HX  93
WACO-TSTC      PTSUNNY   84  73  70 S15G24    29.79F HX  91
WACO-MCGREGOR  PTSUNNY   87  73  62 S25G32    29.77F HX  94
HILLSBORO      CLOUDY    84  76  75 S22G30    29.77F HX  93
CORSICANA      CLOUDY    85  74  69 S18G26    29.81F HX  92
MEXIA          CLOUDY    84  72  66 S22G30    29.80F
HEARNE         PTSUNNY   88  76  67 S16G24    29.80F HX 100
CAMERON        PTSUNNY   88  74  63 SE16G24   29.78F HX  95
TEMPLE           N/A     85  75  72 S23G29    29.79F HX  93
KILLEEN        PTSUNNY   84  72  65 SE26G33   29.75F
KILLEEN-SKYLRK PTSUNNY   86  73  65 S18G31    29.78F HX  93
FORT HOOD      PTSUNNY   87  72  61 S15G26    29.73F HX  93
GATESVILLE     FAIR      88  72  58 SE15G28   29.77F HX  94
HAMILTON       PTSUNNY   85  71  62 S25G32    29.76F HX  91
LAMPASAS       PTSUNNY   84  70  62 S18G30    29.76F
$$

TXZ095>097-106>112-122>126-135>138-148>153-164>167-202000-
EAST TEXAS

CITY           SKY/WX    TMP DP  RH WIND       PRES   REMARKS
PARIS          CLOUDY    79  74  84 SE20      29.83F
SULPHUR SPRNGS CLOUDY    84  75  75 SE9       29.84F HX  91
MOUNT PLEASANT PTSUNNY   79  73  81 SE10      29.87F
GILMER         CLOUDY    83  73  71 SE10      29.85F HAZE    HX  90
MINEOLA        PTSUNNY   84  75  74 SE9       29.83F HX  92
TYLER          CLOUDY    87  73  62 SE15G23   29.82F HX  94
LONGVIEW       CLOUDY    86  75  69 SE15      29.84F HX  95
MARSHALL       PTSUNNY   85  74  70 S13       29.88F HX  93
ATHENS         CLOUDY    86  73  66 SE13G21   29.80F HX  93
PALESTINE      PTSUNNY   87  73  64 SE13G22   29.83F HX  94
JACKSONVILLE   PTSUNNY   86  73  65 S17G25    29.86F HX  93
HENDERSON      CLOUDY    86  73  66 SE16G24   29.87F HX  93
CENTER         CLOUDY    84  71  64 S14G22    29.89
NACOGDOCHES    PTSUNNY   88  76  67 S15G25    29.87F HX  99
LUFKIN         FAIR      86  72  62 S15G29    29.86F HX  92
$$

SUPPLEMENTAL OBSERVATIONS (NWS FORT WORTH AREA)

CITY           SKY/WX    TMP DP  RH WIND       PRES   REMARKS
CADDO GRASSLND   N/A     79  72  78 S9G18       N/A
LBJ GRASSLAND    N/A     82  73  74 S14G23      N/A
POSSUM KINGDOM   N/A     82  70  65 SE14G29     N/A
GRANBURY         N/A     88  72  58 SE22G35     N/A  HX  94
COMANCHE         N/A     88  72  58 S24G35      N/A  HX  94
MCGREGOR         N/A     84  72  65 S21G28      N/A
TEMPLE           N/A     86  72  62 S14G25      N/A  HX  92
LAKE LIMESTONE   N/A     88  72  58 S10G24      N/A  HX  94
PALESTINE        N/A     88  73  62 SE10G23     N/A  HX  96
$$

SUPPLEMENTAL OBSERVATIONS (NWS NORMAN AREA)

CITY           SKY/WX    TMP DP  RH WIND       PRES   REMARKS
GOODLETT         N/A     82  69  64 S21       29.61F
ODELL            N/A     85  71  64 SE23      29.64F HX  90
CROWELL          N/A     83  71  67 S17       29.63F
KNOX CITY        N/A     88  69  53 S21       29.62F HX  92
SEYMOUR          N/A     85  71  62 SE21      29.64F HX  90
MILLERS CREEK    N/A     84  72  65 S22G29      N/A
$$

SUPPLEMENTAL OBSERVATIONS (NWS SAN ANGELO AREA)

CITY           SKY/WX    TMP DP  RH WIND       PRES   REMARKS
WEINERT          N/A     86  70  59 S21       29.63F HX  91
HASKELL          N/A     85  67  55 S17       29.62F
THROCKMORTON     N/A     83  72  68 SE10        N/A
STAMFORD         N/A     87  70  58 S25       29.64F HX  91
CLYDE            N/A     85  70  60 S25       29.68F
HAMBY            N/A     88  68  51 S31G41      N/A  HX  91
IVIE RESERVOIR   N/A     82  68  61 S25G35      N/A
COLORADO BEND    N/A     88  72  58 S16G30      N/A  HX  94
$$

SUPPLEMENTAL OBSERVATIONS (NWS SHREVEPORT AREA)

CITY           SKY/WX    TMP DP  RH WIND       PRES   REMARKS
TEXARKANA        N/A     81  73  78 SE5         N/A
LINDEN           N/A     82  73  74 E5G13       N/A
CADDO LAKE       N/A     84  73  70 SE6         N/A  HX  91
LUFKIN           N/A     88  72  58 MISG        N/A  HX  94
N SABINE NF      N/A     88  75  66 MISG        N/A  HX  97
$$

SUPPLEMENTAL OBSERVATIONS ARE A COLLECTION OF AUTOMATED INSTRUMENTS
THAT ARE MAINTAINED BY A VARIETY OF FEDERAL AND STATE AGENCIES.
CERTAIN ELEMENTS...SUCH AS HUMIDITY VALUES AND SUSTAINED WIND
SPEEDS...MAY BE APPROXIMATED.




USA.gov is the U.S. government's official web portal to all federal, state and local government web resources and services.